This is the latest recevied weather packets stored in our database for station/object EA7RX-4. If no packets are shown the sender has not sent any weather packets the latest 10 day(s).
| Time | Temp. | Humidity | Pressure | Rain* | Wind** | Luminosity | Snow |
|---|---|---|---|---|---|---|---|
| 1787608203 | 19.44° C | 62% | 1015.3 hPa | 0 mm | - | 0 W/m² | - |
| 1787607603 | 19.44° C | 62% | 1015.3 hPa | 0 mm | - | 0 W/m² | - |
| 1787607003 | 20° C | 61% | 1015.2 hPa | 0 mm | - | 0 W/m² | - |
| 1787606403 | 20° C | 60% | 1015.3 hPa | 0 mm | - | 0 W/m² | - |
| 1787605803 | 20° C | 59% | 1015.2 hPa | 0 mm | - | 0 W/m² | - |
| 1787605203 | 20° C | 59% | 1015 hPa | 0 mm | - | 0 W/m² | - |
| 1787604603 | 20.56° C | 57% | 1015.1 hPa | 0 mm | - | 0 W/m² | - |
| 1787604003 | 20.56° C | 56% | 1014.8 hPa | 0 mm | - | 0 W/m² | - |
| 1787603403 | 20.56° C | 55% | 1015 hPa | 0 mm | - | 0 W/m² | - |
| 1787602803 | 21.11° C | 54% | 1015.1 hPa | 0 mm | - | 0 W/m² | - |
| 1787602203 | 21.11° C | 52% | 1014.6 hPa | 0 mm | - | 0 W/m² | - |
| 1787601603 | 21.11° C | 51% | 1014.6 hPa | 0 mm | - | 0 W/m² | - |
| 1787601003 | 21.67° C | 50% | 1014.4 hPa | 0 mm | - | 0 W/m² | - |
| 1787600403 | 21.67° C | 49% | 1014.3 hPa | 0 mm | - | 0 W/m² | - |
| 1787599803 | 22.22° C | 48% | 1014.2 hPa | 0 mm | - | 0 W/m² | - |
| 1787599203 | 22.22° C | 47% | 1013.9 hPa | 0 mm | - | 0 W/m² | - |
| 1787598603 | 22.22° C | 46% | 1014.1 hPa | 0 mm | - | 0 W/m² | - |
| 1787598003 | 22.78° C | 45% | 1013.4 hPa | 0 mm | - | 1 W/m² | - |
| 1787597403 | 22.78° C | 44% | 1013.8 hPa | 0 mm | - | 3 W/m² | - |
| 1787596803 | 22.78° C | 44% | 1013.6 hPa | 0 mm | - | 10 W/m² | - |
| 1787596203 | 22.78° C | 43% | 1013.6 hPa | 0 mm | - | 19 W/m² | - |
| 1787595603 | 23.33° C | 43% | 1013.3 hPa | 0 mm | - | 34 W/m² | - |
| 1787595003 | 23.33° C | 42% | 1013.6 hPa | 0 mm | - | 49 W/m² | - |
| 1787594403 | 23.33° C | 42% | 1013.4 hPa | 0 mm | - | 34 W/m² | - |
| 1787593803 | 23.89° C | 41% | 1013.6 hPa | 0 mm | - | 41 W/m² | - |
* Rain latest hour (hover to see other rain measurements)
** Current wind speed in m/s (hover to see current wind gust speed)